Regional Weather Roundup
Issued by NWS State College, PA

Home | Current Version | Previous Version | Graphics & Text | Print | Product List | Glossary On
Versions: 1 2 3 4 5 6 7 8 9 10 11 12 13 14 15 16 17 18 19 20 21 22 23 24 25 26 27 28 29 30 31 32 33 34 35 36 37 38 39 40 41 42 43 44 45 46 47 48 49 50
000
ASUS41 KCTP 230110
RWRCTP

REGIONAL WEATHER ROUNDUP
NATIONAL WEATHER SERVICE STATE COLLEGE PA
900 PM EDT SUN OCT 22 2017

Note: "fair" indicates few or no clouds below 12,000 feet with no
significant weather and/or obstructions to visibility.

* = STATION THAT DOES NOT REPORT PRECIPITATION /E.G. RAIN...SNOW...ETC/
    THUNDER OR FOG.

PAZ002>004-007>009-013>016-020>023-029>032-230200-
WESTERN PENNSYLVANIA

CITY           SKY/WX    TMP DP  RH WIND       PRES   REMARKS
ERIE           CLOUDY    66  51  58 S9        30.13F
MEADVILLE      PTCLDY    66  50  56 CALM      30.18F
FRANKLIN*      PTCLDY    66  51  58 SE9       30.20F
NEW CASTLE     FAIR      61  52  72 CALM      30.18S
BEAVER COUNTY  NOT AVBL
BUTLER*        CLOUDY    66  52  60 SE8       30.20S
PITTSBURGH INT CLOUDY    65  51  60 SE7       30.18S
PITTSBURGH     CLOUDY    66  49  54 E6        30.18F
INDIANA*       CLEAR     66  54  63 S10G17    30.25F
LATROBE        CLEAR     68  52  56 S14       30.21S
WASHINGTON CO* NOT AVBL
$$

PAZ004>006-010>012-017>019-024>028-033>037-041-042-045-046-049>053-230200-
CENTRAL PENNSYLVANIA

CITY           SKY/WX    TMP DP  RH WIND       PRES   REMARKS
BRADFORD       PTCLDY    63  52  67 S7        30.26S
DUBOIS         PTCLDY    63  50  62 SE8       30.25S
CLEARFIELD     PTCLDY    64  53  67 SE3       30.28S
JOHNSTOWN      PTCLDY    62  53  72 SE10G20   30.27S
ALTOONA        CLOUDY    65  54  67 S6        30.30S
STATE COLLEGE  PTCLDY    64  52  63 S7        30.29F
WILLIAMSPORT   PTCLDY    67  46  47 VRB7      30.29R
SELINSGROVE    CLOUDY    56  51  84 CALM      30.32R
FT INDIANTOWN  MOCLDY    55  50  82 N3        30.34R
CAPITAL CITY   MOCLDY    61  46  57 E5        30.33R
HARRISBURG     MOCLDY    57  50  77 CALM      30.33R
YORK           PTCLDY    53  48  83 CALM      30.33R
$$

PAZ038>040-043-044-047-048-054-055-060>062-067>071-230200-
EASTERN PENNSYLVANIA

CITY           SKY/WX    TMP DP  RH WIND       PRES   REMARKS
SCRANTON       CLOUDY    63  44  50 CALM      30.33R
MOUNT POCONO   PTCLDY    57  44  62 SE7       30.37R
ALLENTOWN      PTCLDY    64  47  53 CALM      30.34S
QUAKERTOWN*    CLOUDY    54  48  82 CALM      30.36R
READING        PTCLDY    59  48  67 CALM      30.34R
LANCASTER      PTCLDY    59  46  62 E3        30.34R
COATESVILLE    CLEAR     59  52  77 SE3       30.37R
POTTSTOWN      CLOUDY    57  49  74 CALM      30.36R
BLUE BELL      PTCLDY    54  46  76 CALM      30.36S
DOYLESTOWN     CLOUDY    59  49  69 CALM      30.35R
WILLOW GROVE   NOT AVBL
NORTH PHILA    PTCLDY    63  50  62 SE5       30.37R
PHILADELPHIA   MOCLDY    62  50  64 SE5       30.36R
$$



USA.gov is the U.S. government's official web portal to all federal, state and local government web resources and services.